Temperature
16 16 16 16 16 16 15 15 15 15 15 15 14 14 14 14 14 14 13 13 13 13 13 12 12 12 12 12 12 12 12 12 12 12 12 12 12 12 12 12 12 11 11
15 15 15 15 15 15 15 15 14 14 14 14 14 14 14 13 13 13 13 13 13 13 12 12 12 12 12 12 12 12 12 12 11 11 11 11 11 11 11 12 11 11 11
15 15 15 15 15 15 14 14 14 14 14 14 14 13 13 13 13 13 13 13 13 12 12 12 12 12 12 12 12 12 11 11 11 11 11 11 11 11 11 11 11 11 11
14 14 14 14 14 14 14 14 14 14 14 13 13 13 13 13 13 13 13 13 13 12 12 12 12 11 12 12 11 11 11 11 11 11 11 11 11 11 11 11 11 11 11
14 14 14 14 14 14 14 14 14 13 13 13 13 13 13 13 13 13 13 13 12 12 12 12 11 11 11 11 11 11 11 11 11 11 10 10 10 10 10 10 10 10 10
14 14 14 14 14 14 13 13 13 13 13 13 13 13 13 13 13 13 13 13 12 12 12 11 11 11 11 11 11 10 10 10 10 10 10 10 10 10 10 10 10 10 10
14 14 14 14 14 13 13 13 13 13 13 13 12 13 13 13 13 13 13 12 12 12 11 11 11 11 10 10 10 10 10 10 10 10 10 10 10 10 10 10 10 9 9
14 14 14 14 14 13 13 13 13 13 13 12 12 11 11 12 12 12 12 12 11 11 11 11 10 10 10 10 10 9 9 9 9 9 9 9 9 9 9 9 9 9 9
14 14 14 14 14 13 13 13 13 12 12 12 12 11 10 10 10 11 11 11 11 10 10 10 10 10 9 9 9 9 9 9 8 8 8 9 9 9 9 9 9 9 9
14 14 14 13 13 13 13 13 12 12 12 12 11 11 10 10 9 9 10 10 10 10 9 9 9 9 9 8 8 8 8 8 8 8 8 8 8 8 8 8 9 9 9
14 14 14 13 13 13 13 12 12 12 12 11 11 10 10 9 9 8 9 9 9 9 9 9 8 8 8 8 8 7 7 7 7 7 7 7 7 8 8 8 8 8 8
14 13 13 13 13 13 12 12 12 11 11 11 10 10 9 9 8 8 8 8 8 8 8 8 8 7 7 7 7 7 7 6 6 6 6 7 7 7 7 7 7 7 8
14 13 13 13 12 12 12 11 11 11 10 10 10 9 9 8 7 7 7 7 7 7 7 7 7 7 6 6 6 6 6 6 6 6 6 6 6 6 6 6 7 7 7
13 13 12 12 12 12 11 11 10 10 10 9 9 9 8 8 7 7 6 6 6 6 6 6 6 6 5 5 5 5 5 5 5 5 5 5 5 5 5 5 6 6 6
12 12 12 11 11 11 10 10 10 9 9 8 8 8 7 7 6 6 6 6 5 5 5 5 5 5 4 4 4 4 4 4 4 4 4 4 4 4 5 5 5 5 6
12 11 11 11 10 10 10 9 9 8 8 8 7 7 6 6 6 5 5 5 5 5 4 4 4 4 3 3 3 4 3 3 3 3 3 3 3 4 4 4 4 4 5
11 11 10 10 10 9 9 8 8 8 7 7 6 6 5 5 5 5 5 4 4 4 4 4 3 3 3 3 3 3 3 3 2 3 3 3 3 3 3 3 3 4 4
10 10 9 9 9 8 8 7 7 7 6 6 5 5 5 4 4 4 4 4 4 3 3 3 3 2 2 2 2 2 2 2 2 2 2 2 2 2 3 3 3 3 3
9 9 9 8 8 7 7 7 6 6 5 5 4 4 4 4 3 3 3 3 3 3 3 3 3 2 2 2 2 1 1 1 1 1 1 1 1 2 2 2 2 2 2
9 8 8 7 7 7 6 6 5 5 4 4 3 3 3 3 3 3 3 3 3 3 3 3 2 2 1 1 1 1 1 1 1 1 1 1 1 1 1 1 1 2 2
8 7 7 7 6 6 5 5 4 4 3 3 2 2 2 2 2 2 3 3 3 3 2 2 2 1 1 1 1 1 0 0 0 0 0 0 0 1 1 1 1 1 1
7 7 6 6 5 5 4 4 3 3 2 2 2 2 2 2 2 2 2 2 2 2 2 2 2 1 1 1 0 0 0 -0 -0 -0 -0 -0 -0 -0 -0 0 0 0 0
6 6 5 5 4 4 3 3 3 2 2 2 2 2 2 2 2 2 2 2 2 2 2 2 1 1 1 0 -0 -0 -0 -0 -1 -1 -1 -0 -1 -1 -1 -1 -1 -1 -0
5 5 4 4 3 3 3 2 2 2 2 2 2 2 2 2 1 2 2 2 2 2 2 1 1 1 0 -0 -0 -1 -1 -1 -1 -1 -1 -1 -1 -1 -1 -1 -1 -1 -1
5 4 4 3 3 2 2 2 2 2 1 1 1 1 1 1 1 1 1 1 2 1 1 1 1 0 0 -0 -1 -1 -1 -1 -1 -1 -1 -2 -2 -1 -1 -2 -2 -2 -2
4 3 3 2 2 2 1 1 1 1 1 1 1 1 1 1 1 1 1 1 1 1 1 0 0 0 -0 -1 -1 -1 -1 -2 -2 -2 -2 -2 -2 -2 -2 -2 -2 -3 -3
Wind_Speed
6 7 7 8 9 9 8 7 7 7 7 7 8 8 7 8 9 10 11 13 15 14 12 11 10 10 10 10 10 9 8 8 7 6 6 4 3 3 2 1 1 2 3
9 7 6 6 7 9 9 8 7 5 4 4 4 5 6 6 7 9 10 12 15 16 15 13 12 11 10 10 10 10 11 11 10 9 9 8 7 6 5 4 3 2 2
10 8 5 4 6 7 7 6 5 3 2 2 3 4 5 6 7 8 9 10 12 14 15 14 12 10 9 9 9 9 9 11 12 11 11 11 10 9 8 7 6 5 4
10 8 4 3 5 4 3 2 1 1 2 2 3 4 4 5 7 8 9 9 9 9 10 11 10 9 7 6 7 7 7 6 8 11 12 12 12 12 11 10 9 8 7
9 7 4 3 4 2 2 1 1 2 2 3 4 4 4 4 5 7 7 8 7 7 6 6 5 4 3 4 5 6 6 6 5 6 9 11 12 12 13 13 12 11 10
8 6 4 2 2 1 1 1 2 2 2 3 4 4 5 5 4 4 5 5 4 3 3 2 2 2 3 4 5 5 6 7 6 5 6 8 10 11 13 13 14 14 13
7 6 3 2 2 2 1 1 1 2 2 1 2 4 4 4 4 4 2 1 1 1 3 4 5 6 6 7 8 7 7 8 7 7 6 6 7 9 11 13 14 15 16
7 5 4 2 2 1 1 0 0 1 1 0 1 2 4 4 4 4 3 2 2 4 6 6 7 7 6 7 7 8 8 8 8 8 7 7 8 8 10 11 14 15 15
7 6 5 3 2 2 1 1 0 1 1 1 1 2 2 3 3 3 4 5 4 4 4 7 8 8 8 8 8 9 9 9 9 9 9 9 8 8 8 9 11 12 13
7 7 6 5 3 2 2 1 1 0 1 2 2 2 3 3 2 2 2 3 5 5 5 5 7 8 8 8 9 10 10 10 9 9 9 8 8 7 7 7 7 8 9
6 7 6 5 3 2 2 2 1 1 0 1 2 1 2 2 3 4 3 1 2 4 5 5 6 7 8 8 9 10 11 10 10 9 9 8 8 8 8 7 7 6 6
3 5 6 5 4 3 2 2 1 1 0 1 1 2 2 2 2 3 4 2 1 2 4 5 5 6 7 8 9 10 11 11 11 11 10 11 11 11 10 10 8 7 6
3 3 3 4 3 3 3 2 1 1 0 0 1 1 1 1 1 2 2 2 1 1 2 3 4 5 6 7 8 10 11 12 11 10 11 12 12 12 12 12 11 9 7
4 4 4 4 4 3 3 2 1 0 1 0 0 0 0 1 1 1 1 1 2 1 2 3 2 4 5 6 7 9 9 11 11 11 12 12 12 13 13 13 13 11 8
5 5 5 4 4 3 2 2 1 1 1 1 1 1 1 1 1 1 1 1 2 3 3 3 2 2 3 5 7 8 8 10 10 10 10 11 11 12 12 13 13 12 11
5 6 5 4 3 3 2 2 1 1 1 1 1 2 2 1 1 1 1 1 1 2 2 2 2 1 3 3 6 7 8 9 10 9 9 10 10 10 11 12 13 13 11
6 6 5 4 4 3 2 2 1 1 2 2 2 2 2 2 2 2 2 1 1 0 2 2 2 1 2 2 4 6 7 8 8 9 9 9 9 9 10 11 12 12 13
5 5 5 4 3 3 2 2 2 2 2 2 2 3 2 2 3 2 2 2 1 1 2 3 2 1 2 1 2 3 5 6 7 8 9 8 8 8 9 10 11 11 12
6 5 5 4 4 3 2 2 2 3 3 3 3 3 3 3 3 2 2 2 2 2 1 3 2 1 1 1 2 2 3 5 5 8 8 8 8 8 8 9 10 11 11
6 5 5 4 4 3 3 3 3 4 4 4 4 3 3 3 3 2 2 2 2 2 3 3 3 2 2 2 2 2 2 3 3 6 8 8 8 9 9 9 9 10 10
6 5 5 5 4 3 3 4 4 5 5 5 4 3 3 3 4 3 2 1 2 2 2 3 2 2 1 1 1 1 1 2 2 3 4 5 7 7 8 8 8 8 8
5 5 6 5 4 3 5 7 6 5 5 5 4 3 2 3 3 3 4 4 3 3 3 3 2 2 2 1 1 1 1 1 2 3 3 3 4 3 6 8 7 6 7
5 5 6 6 5 5 6 7 8 5 5 5 4 3 2 2 3 3 4 5 4 4 3 4 4 3 3 3 2 1 0 1 2 2 2 2 3 3 5 8 7 5 6
6 5 6 6 5 6 8 7 8 5 4 4 4 4 4 2 2 3 3 3 3 3 2 3 4 4 3 3 3 3 2 1 1 1 1 1 3 2 4 7 7 5 5
5 5 5 6 6 6 9 9 8 5 4 4 4 4 5 4 5 6 4 3 1 1 2 4 5 4 4 4 5 3 2 1 1 1 2 1 2 3 3 3 6 7 7
6 6 5 6 7 6 9 10 10 4 4 4 3 4 7 7 7 6 5 4 3 2 1 1 1 2 2 1 3 3 3 2 1 2 1 1 2 3 3 3 3 6 7
Wind_Direction
186 192 201 207 214 219 224 235 245 254 259 260 257 253 254 258 259 256 252 245 241 240 242 243 246 248 250 248 246 244 237 231 227 222 217 212 208 207 196 181 140 127 120
182 184 194 203 213 218 222 225 231 239 250 255 262 262 261 268 270 268 263 257 249 246 246 248 251 255 258 259 259 255 243 234 229 226 223 220 216 215 215 213 208 191 177
179 177 180 193 212 218 219 223 236 241 260 269 277 283 283 284 283 279 273 262 257 253 251 253 257 258 264 271 276 278 265 244 232 227 225 223 220 218 217 217 215 208 200
176 169 169 190 209 206 200 204 227 251 270 279 285 288 290 291 289 285 280 271 263 259 256 254 256 263 272 283 295 302 301 286 254 236 230 226 224 223 220 218 217 214 210
173 166 170 191 195 180 186 206 214 218 257 277 280 280 281 279 278 280 277 274 264 253 247 251 253 262 282 309 323 330 332 334 319 271 247 235 231 229 227 223 220 218 214
168 161 160 174 164 156 206 226 237 240 243 262 280 284 279 276 275 273 274 277 269 248 220 193 149 109 63 44 28 16 6 359 355 336 295 261 245 238 235 230 225 223 219
159 149 141 135 126 154 201 231 236 258 269 273 299 308 303 295 300 301 297 297 343 97 102 107 105 99 82 64 51 39 22 10 358 341 328 310 279 260 247 238 233 228 224
148 144 135 134 122 137 123 75 141 218 264 236 189 307 320 331 340 358 9 35 43 69 75 78 87 87 84 70 51 40 26 11 357 342 324 306 298 286 268 253 243 236 230
137 130 127 120 108 123 132 98 86 179 261 284 202 202 239 268 305 333 21 35 45 56 59 66 70 72 74 66 53 40 27 12 356 341 328 311 297 288 282 272 257 244 236
124 120 115 111 105 109 112 91 77 145 207 255 279 243 227 220 246 297 343 32 43 47 44 55 62 64 63 58 50 39 28 13 360 346 338 333 325 318 305 294 282 266 252
115 115 113 109 104 98 94 78 68 53 179 221 236 261 263 250 228 229 257 295 41 43 45 49 58 59 56 51 43 36 28 17 9 358 354 355 356 352 345 328 310 298 284
110 109 110 107 101 96 87 75 65 64 43 242 242 240 237 240 231 224 237 234 202 81 59 47 48 52 51 46 41 34 29 22 14 12 19 24 22 17 12 3 349 328 312
148 143 122 117 107 102 91 75 63 31 348 275 252 254 264 266 270 244 239 236 200 154 111 62 39 48 51 45 37 33 30 25 21 23 29 33 32 27 22 16 10 3 351
153 145 130 121 111 104 92 76 71 18 41 7 342 2 54 16 351 284 243 217 218 198 151 136 58 45 46 44 40 38 32 29 31 35 37 35 32 29 25 21 18 15 9
135 131 124 120 111 102 94 95 90 64 88 74 66 71 77 50 31 7 328 242 211 215 203 149 126 47 42 48 44 40 33 30 34 39 38 33 30 28 26 25 24 22 23
126 130 128 125 117 101 86 90 93 105 108 87 87 92 83 65 53 35 10 333 261 210 189 124 121 101 51 54 49 40 35 34 29 36 36 32 29 27 27 27 25 26 26
133 134 133 129 122 107 98 108 128 125 121 102 92 104 87 71 62 31 29 40 38 119 171 117 100 103 75 51 41 38 37 34 25 30 31 29 29 28 27 27 26 29 30
130 131 131 132 131 122 119 137 151 137 135 124 109 107 97 87 71 47 46 44 37 26 139 141 122 114 93 70 47 34 28 27 22 23 24 25 26 32 33 31 30 30 30
134 134 138 144 143 140 135 136 139 129 123 121 119 119 110 104 84 60 57 49 28 35 73 126 126 103 85 55 45 28 27 16 20 19 20 23 29 37 40 37 33 30 29
146 150 152 150 150 148 144 140 135 126 116 108 107 110 108 109 113 99 74 54 58 66 76 102 108 98 81 47 61 36 17 7 359 6 12 19 24 31 32 33 30 28 29
155 154 148 148 150 153 163 157 149 145 137 123 106 98 105 118 127 130 119 106 103 100 99 103 107 98 87 66 60 17 13 339 346 2 350 3 11 17 15 14 16 22 25
155 154 159 163 168 177 182 177 163 151 149 145 138 118 99 78 93 91 95 105 127 136 143 133 128 142 153 154 131 59 46 22 317 343 1 341 6 0 354 355 2 14 21
164 167 172 172 178 191 193 188 177 156 155 159 161 162 160 142 95 67 71 63 55 79 133 150 152 168 171 182 160 133 151 200 253 306 351 323 348 338 340 349 355 15 24
173 178 183 180 181 199 200 193 180 154 159 171 177 177 172 175 182 155 121 86 51 39 82 113 147 166 177 178 177 175 185 216 294 343 21 315 334 324 326 341 359 15 16
179 183 182 181 185 201 202 196 177 154 172 189 198 195 190 197 215 186 156 150 109 12 98 131 140 156 172 175 162 127 113 81 337 326 9 18 332 324 318 318 347 7 9
183 181 188 191 192 202 209 204 189 167 182 198 210 218 214 209 219 201 173 176 192 216 194 118 95 84 74 93 142 149 154 148 184 266 336 41 357 360 333 311 324 344 354
Height
1561 1562 1563 1564 1565 1565 1566 1566 1566 1566 1566 1566 1565 1565 1565 1564 1564 1563 1562 1562 1561 1560 1559 1558 1557 1556 1555 1554 1553 1552 1551 1550 1549 1549 1548 1547 1546 1546 1545 1544 1544 1543 1543
1560 1561 1562 1563 1563 1564 1564 1565 1565 1564 1564 1564 1564 1563 1563 1562 1561 1561 1560 1559 1558 1558 1557 1556 1555 1554 1553 1552 1551 1550 1549 1548 1547 1547 1546 1546 1545 1545 1544 1543 1543 1542 1542
1559 1560 1561 1561 1562 1562 1562 1563 1563 1563 1562 1562 1561 1561 1560 1559 1559 1558 1557 1556 1555 1555 1554 1553 1552 1551 1550 1549 1548 1547 1546 1545 1545 1544 1544 1544 1543 1543 1542 1542 1542 1541 1541
1557 1558 1559 1559 1560 1560 1560 1560 1560 1560 1560 1559 1559 1558 1557 1556 1555 1554 1553 1552 1552 1551 1550 1550 1549 1548 1547 1546 1545 1544 1543 1543 1542 1542 1541 1541 1541 1541 1540 1540 1540 1540 1539
1555 1556 1557 1557 1558 1558 1558 1558 1558 1557 1557 1556 1556 1555 1554 1552 1551 1550 1549 1548 1547 1547 1546 1546 1545 1545 1544 1543 1542 1541 1540 1539 1539 1538 1538 1538 1538 1538 1538 1538 1538 1538 1537
1553 1554 1554 1555 1555 1555 1555 1555 1555 1554 1554 1553 1552 1550 1549 1548 1547 1546 1545 1544 1543 1543 1543 1542 1542 1542 1541 1540 1539 1539 1538 1537 1536 1535 1535 1534 1534 1534 1535 1535 1535 1535 1535
1550 1551 1551 1552 1552 1552 1552 1552 1551 1551 1550 1549 1548 1546 1545 1544 1543 1542 1541 1540 1540 1540 1540 1540 1539 1539 1538 1538 1537 1536 1535 1534 1533 1532 1531 1531 1530 1530 1531 1531 1531 1532 1533
1548 1548 1549 1549 1549 1549 1549 1549 1548 1547 1546 1546 1545 1543 1541 1540 1539 1539 1538 1538 1537 1537 1537 1537 1536 1536 1535 1535 1534 1533 1532 1531 1530 1528 1527 1527 1527 1526 1527 1527 1527 1528 1529
1545 1545 1546 1546 1546 1545 1545 1545 1544 1543 1542 1542 1541 1541 1539 1537 1536 1536 1536 1535 1534 1534 1534 1534 1533 1533 1532 1531 1531 1530 1529 1527 1526 1525 1524 1523 1523 1523 1523 1523 1523 1524 1525
1541 1542 1542 1542 1542 1541 1541 1540 1540 1539 1538 1537 1537 1536 1536 1535 1535 1533 1533 1532 1532 1531 1531 1530 1530 1529 1529 1528 1527 1526 1525 1524 1523 1521 1521 1520 1519 1519 1519 1519 1519 1519 1520
1537 1537 1538 1538 1538 1537 1536 1536 1535 1534 1533 1532 1532 1531 1531 1531 1530 1530 1529 1529 1528 1528 1527 1527 1526 1526 1525 1524 1524 1523 1522 1521 1519 1518 1517 1516 1515 1515 1515 1515 1515 1515 1515
1533 1533 1533 1533 1533 1533 1532 1531 1530 1530 1529 1528 1527 1526 1526 1526 1525 1525 1525 1525 1524 1524 1523 1523 1522 1522 1522 1521 1520 1520 1519 1518 1516 1515 1514 1513 1512 1511 1511 1511 1510 1511 1511
1529 1529 1530 1529 1529 1528 1527 1527 1526 1525 1524 1523 1522 1521 1521 1520 1520 1520 1521 1521 1520 1520 1519 1519 1519 1519 1518 1518 1517 1516 1515 1514 1513 1512 1511 1509 1509 1508 1507 1507 1507 1507 1507
1525 1525 1525 1525 1524 1524 1523 1522 1521 1520 1519 1518 1517 1516 1516 1515 1515 1515 1516 1517 1516 1516 1516 1515 1515 1515 1515 1514 1513 1513 1512 1511 1510 1509 1508 1507 1506 1505 1505 1504 1504 1503 1503
1521 1521 1521 1520 1520 1519 1518 1517 1516 1515 1514 1513 1512 1512 1511 1511 1510 1510 1511 1511 1513 1512 1512 1511 1511 1511 1511 1511 1510 1509 1509 1508 1507 1506 1505 1504 1504 1503 1502 1502 1501 1501 1501
1516 1516 1516 1516 1515 1515 1514 1513 1512 1510 1510 1509 1508 1507 1507 1506 1506 1506 1506 1506 1507 1508 1508 1507 1507 1508 1508 1507 1507 1506 1505 1505 1504 1503 1502 1502 1501 1501 1500 1500 1499 1499 1498
1512 1512 1512 1512 1511 1510 1509 1509 1507 1506 1505 1505 1504 1503 1503 1502 1502 1502 1502 1502 1502 1503 1504 1504 1504 1504 1504 1504 1503 1503 1502 1502 1501 1500 1500 1499 1499 1498 1498 1497 1497 1496 1496
1508 1508 1508 1507 1507 1506 1505 1504 1503 1502 1501 1501 1500 1500 1499 1499 1498 1498 1498 1498 1498 1499 1500 1500 1501 1501 1501 1501 1500 1500 1499 1499 1498 1498 1497 1497 1496 1496 1495 1495 1495 1494 1494
1504 1504 1504 1503 1503 1502 1501 1500 1499 1498 1498 1497 1497 1497 1496 1496 1495 1495 1495 1495 1495 1495 1496 1497 1497 1498 1498 1498 1497 1497 1497 1496 1496 1495 1495 1494 1494 1493 1493 1493 1492 1492 1492
1500 1500 1500 1499 1499 1498 1497 1496 1496 1495 1494 1494 1494 1494 1493 1493 1493 1493 1492 1492 1492 1493 1493 1494 1494 1495 1495 1495 1495 1494 1494 1494 1493 1493 1492 1492 1492 1491 1491 1490 1490 1490 1490
1496 1496 1496 1495 1494 1494 1493 1493 1492 1492 1491 1491 1491 1491 1491 1490 1490 1490 1490 1490 1490 1491 1491 1491 1491 1492 1492 1492 1492 1492 1492 1491 1491 1491 1490 1490 1490 1489 1489 1489 1488 1488 1488
1492 1492 1492 1491 1491 1490 1490 1489 1489 1488 1488 1488 1488 1488 1488 1488 1488 1488 1488 1488 1489 1489 1489 1489 1489 1489 1490 1490 1490 1489 1489 1489 1489 1489 1488 1488 1488 1487 1487 1487 1486 1486 1486
1488 1488 1488 1487 1487 1487 1486 1486 1485 1486 1486 1486 1486 1486 1486 1486 1486 1487 1487 1487 1487 1487 1487 1487 1487 1487 1488 1488 1488 1487 1487 1487 1487 1486 1486 1486 1486 1485 1485 1484 1484 1484 1484
1484 1484 1484 1484 1484 1483 1483 1483 1483 1483 1483 1483 1483 1484 1484 1484 1485 1485 1485 1485 1485 1485 1485 1485 1485 1485 1486 1486 1486 1486 1485 1485 1485 1484 1484 1484 1483 1483 1482 1482 1481 1481 1481
1480 1480 1480 1480 1480 1480 1480 1480 1480 1480 1480 1481 1481 1481 1482 1482 1483 1483 1483 1483 1483 1483 1483 1483 1483 1483 1484 1484 1484 1484 1483 1483 1483 1483 1482 1482 1481 1480 1480 1479 1479 1479 1479
1476 1476 1476 1476 1477 1477 1477 1477 1477 1477 1478 1478 1478 1479 1480 1480 1480 1480 1481 1481 1481 1481 1482 1481 1482 1481 1481 1481 1481 1481 1481 1481 1480 1480 1479 1479 1479 1478 1477 1477 1477 1477 1476